This is the latest recevied weather packets stored in our database for station/object E7HQ-1. If no packets are shown the sender has not sent any weather packets the latest 10 day(s).
| Time | Temp. | Humidity | Pressure | Rain* | Wind** | Luminosity | Snow |
|---|---|---|---|---|---|---|---|
| 1777905836 | 22.22° C | 20% | 1027 hPa | - | - | - | - |
| 1777904935 | 22.78° C | 18% | 1027.1 hPa | - | - | - | - |
| 1777904035 | 22.78° C | 19% | 1027.1 hPa | - | - | - | - |
| 1777903135 | 23.33° C | 17% | 1027.2 hPa | - | - | - | - |
| 1777902235 | 23.89° C | 19% | 1027.3 hPa | - | - | - | - |
| 1777901334 | 23.89° C | 19% | 1027.4 hPa | - | - | - | - |
| 1777900434 | 23.33° C | 16% | 1027.5 hPa | - | - | - | - |
| 1777899534 | 23.33° C | 14% | 1027.7 hPa | - | - | - | - |
| 1777898634 | 23.89° C | 14% | 1027.8 hPa | - | - | - | - |
| 1777897734 | 23.89° C | 14% | 1027.9 hPa | - | - | - | - |
| 1777896833 | 23.89° C | 17% | 1028.1 hPa | - | - | - | - |
| 1777895933 | 22.78° C | 17% | 1028.3 hPa | - | - | - | - |
| 1777895032 | 24.44° C | 16% | 1028.2 hPa | - | - | - | - |
| 1777894136 | 23.89° C | 18% | 1028.5 hPa | - | - | - | - |
| 1777893236 | 23.89° C | 14% | 1028.7 hPa | - | - | - | - |
| 1777892336 | 23.89° C | 16% | 1028.8 hPa | - | - | - | - |
| 1777891436 | 23.89° C | 19% | 1029 hPa | - | - | - | - |
| 1777890536 | 23.89° C | 15% | 1029.1 hPa | - | - | - | - |
| 1777889635 | 23.89° C | 18% | 1029.4 hPa | - | - | - | - |
| 1777888735 | 23.33° C | 21% | 1029.5 hPa | - | - | - | - |
| 1777887835 | 22.78° C | 23% | 1029.6 hPa | - | - | - | - |
| 1777886935 | 22.22° C | 25% | 1029.7 hPa | - | - | - | - |
| 1777886035 | 22.22° C | 23% | 1029.8 hPa | - | - | - | - |
| 1777885134 | 21.11° C | 25% | 1029.8 hPa | - | - | - | - |
| 1777884234 | 21.67° C | 30% | 1029.8 hPa | - | - | - | - |
* Rain since midnight (hover to see other rain measurements)
** Current wind speed in m/s (hover to see current wind gust speed)